Location: Hardenberg
(52.5670°N, 6.6170°E)
Time: 11:24:03
(UTC+02:00)

ISS - Visible Passes

Search period start: 14 May 2021 00:00
Search period end: 24 May 2021 00:00
Orbit: 417 x 422 km, 51.6° (Epoch: 14 May)

Date Brightness Start Highest point End Pass type
(mag) Time Alt. Az. Time Alt. Az. Time Alt. Az.
14 May -3.4 01:18:38 48° ESE 01:18:38 48° ESE 01:21:16 10° E visible
14 May -3.9 02:51:32 12° W 02:54:39 71° S 02:58:01 10° ESE visible
14 May -2.9 04:28:10 10° W 04:31:11 30° SSW 04:34:11 10° SE visible
14 May -2.3 22:51:43 10° S 22:54:09 19° SE 22:55:34 15° ESE visible
15 May -3.8 00:27:11 10° WSW 00:30:29 55° SSE 00:33:49 10° E visible
15 May -3.9 02:03:50 10° W 02:07:13 77° S 02:10:36 10° E visible
15 May -3.3 03:40:39 10° W 03:43:51 39° SSW 03:47:01 10° SE visible
15 May -1.9 22:05:13 10° S 22:06:55 13° SE 22:08:36 10° ESE visible
15 May -3.5 23:39:53 10° SW 23:43:07 44° SSE 23:46:21 10° E visible
16 May -3.9 01:16:24 10° W 01:19:47 78° S 01:23:10 10° E visible
16 May -3.6 02:53:11 10° W 02:56:28 50° SSW 02:59:46 10° ESE visible
16 May -2.1 04:30:36 10° WSW 04:32:45 16° SW 04:34:54 10° S visible
16 May -3.1 22:52:40 10° SW 22:55:45 34° SSE 22:58:51 10° E visible
17 May -3.9 00:28:58 10° WSW 00:32:20 74° S 00:35:43 10° E visible
17 May -3.8 02:05:43 10° W 02:09:04 61° SSW 02:12:25 10° ESE visible
17 May -2.6 03:42:48 10° W 03:45:29 22° SSW 03:48:10 10° SSE visible
17 May -3.9 23:41:33 10° WSW 23:44:54 66° S 23:48:16 10° E visible
18 May -3.9 01:18:16 10° W 01:21:39 71° S 01:22:53 35° ESE visible
18 May -1.5 02:55:11 10° W 02:55:47 14° W 02:55:47 14° W visible
18 May -3.7 22:54:11 10° WSW 22:57:29 56° SSE 23:00:48 10° E visible
19 May -3.9 00:30:49 10° W 00:34:12 77° S 00:36:28 19° E visible
19 May -2.3 02:07:38 10° W 02:09:23 25° WSW 02:09:23 25° WSW visible
19 May -3.4 22:06:51 10° SW 22:10:04 44° SSE 22:13:19 10° E visible
19 May -3.9 23:43:22 10° W 23:46:45 78° S 23:50:08 10° E visible
20 May -3.5 01:20:09 10° W 01:23:12 49° SW 01:23:12 49° SW visible
20 May -3.8 22:55:55 10° WSW 22:59:18 74° S 23:02:40 10° E visible
21 May -3.8 00:32:41 10° W 00:36:01 61° SSW 00:37:07 37° SE visible
21 May -1.3 02:09:46 10° W 02:10:02 11° W 02:10:02 11° W visible
21 May -3.9 23:45:13 10° W 23:48:35 71° S 23:51:04 17° ESE visible
22 May -2.3 01:22:08 10° W 01:23:59 23° WSW 01:23:59 23° WSW visible
22 May -3.8 22:57:46 10° W 23:01:08 76° S 23:04:30 10° E visible
23 May -3.3 00:34:34 10° W 00:37:45 39° SSW 00:37:59 38° SSW visible
23 May -3.5 23:47:04 10° W 23:50:22 50° SSW 23:52:00 25° SE visible
